[[{"header":{"parameterUnit":"m.s-1","parameterCategory":1,"la1":30.2991,"la2":30.254,"lo1":-89.0895,"lo2":-89.0444,"dy":0.0017,"dx":0.0017,"nx":28,"ny":28,"refTime":"2024-12-25T03:00:00:Z","depth":0,"parameterNumber":2,"parameterNumberName":"U-component_of_WINDS"},"data":[0,0,0,0,0,0,0,0,0,0,0,0,0,0,0,0,0,0,0,0,0,0,0,0,0,0,0,0,0,0,0,0,0,0,0,0,0,0,0,0,0,0,0,0,0,0,0,0,0,0,0,0,0,0,0,0,0,0,-4.5223,-4.5224,0,-4.5276,-4.5277,-4.5277,-4.515,-4.5146,-4.5142,-4.5138,-4.5194,-4.5199,-4.5204,0,0,0,0,0,0,0,0,0,0,0,0,0,-4.5014,-4.5019,-4.5223,-4.5224,-4.5225,-4.5276,-4.5277,-4.5277,-4.515,-4.5146,-4.5141,-4.5136,-4.5192,-4.5198,-4.5205,0,0,0,0,0,0,0,0,0,0,0,0,0,-4.509,-4.502,-4.5223,-4.5167,-4.5163,-4.5276,-4.5277,-4.5278,-4.5152,-4.5145,-4.5139,-4.5134,-4.519,-4.5198,-4.5206,-4.5376,0,0,-4.523,-4.5233,0,0,0,0,0,0,0,0,-4.5086,-4.5098,-4.5175,-4.5171,-4.5167,-4.52,-4.5223,-4.5311,-4.5153,-4.5156,-4.5138,-4.5131,-4.5201,-4.5208,-4.5231,-4.5378,-4.5381,-4.523,-4.5235,-4.5239,-4.5241,0,0,0,0,0,0,0,-4.5081,-4.5095,-4.5244,-4.5176,-4.5171,-4.514,-4.5144,-4.5239,-4.5212,-4.5155,-4.5146,-4.5154,-4.5198,-4.5224,-4.5231,-4.5382,-4.523,-4.5237,-4.5242,-4.5245,-4.5671,-4.5677,0,0,0,0,0,0,-4.5082,-4.5091,-4.5242,-4.5246,-4.511,-4.5149,-4.5153,-4.5196,-4.521,-4.5207,-4.5159,-4.5148,-4.5213,-4.5222,-4.5233,-4.5433,-4.5239,-4.5246,-4.525,-4.5665,-4.5672,-4.568,0,0,0,0,0,0,-4.5078,-4.5097,-4.524,-4.5166,-4.5182,-4.5159,-4.5207,-4.52,-4.5225,-4.5213,-4.5208,-4.5191,-4.5209,-4.5222,-4.5341,-4.5433,-4.5249,-4.5257,-4.5657,-4.5667,-4.5676,-4.5834,0,0,0,0,0,0,-4.5073,-4.5096,-4.516,-4.5168,-4.5186,-4.5348,-4.5213,-4.5205,-4.5239,-4.5225,-4.5242,-4.5239,-4.5205,-4.533,-4.5349,-4.544,-4.5263,-4.5648,-4.5661,-4.5673,-4.5821,-4.5848,-4.5872,0,0,0,0,0,-4.5066,-4.5203,-4.5164,-4.5183,-4.5266,-4.5353,-4.5363,-4.5321,-4.5247,-4.5312,-4.5304,-4.5238,-4.542,-4.5343,-4.5363,-4.5459,-4.5642,-4.5658,-4.5672,-4.5809,-4.5843,-4.5871,0,0,0,0,0,0,-4.5207,-4.5203,-4.516,-4.5304,-4.533,-4.5331,-4.5411,-4.5359,-4.5406,-4.5391,-4.5338,-4.5342,-4.5472,-4.5477,-4.5392,-4.5624,-4.5518,-4.5538,-4.5616,-4.5648,-4.5673,-4.5669,-4.5269,0,0,0,0,0,-4.5255,-4.5326,-4.5319,-4.5447,-4.5462,-4.5435,-4.5471,-4.5437,-4.5461,-4.5472,-4.5473,-4.55,-4.5563,-4.5606,-4.5663,-4.5821,-4.5823,-4.5897,-4.5922,-4.5943,-4.5961,-4.6045,-4.6077,-4.5728,-4.5728,-4.5728,0,0,-4.5355,-4.5361,-4.5409,-4.5475,-4.5491,-4.5566,-4.5445,-4.5529,-4.5584,-4.5485,-4.5597,-4.5599,-4.5626,-4.5765,-4.5827,-4.5774,-4.6058,-4.5962,-4.5979,-4.5985,-4.6063,-4.6096,-4.6126,-4.5738,-4.5736,-4.5735,0,0,-4.5575,-4.5587,-4.5694,-4.5713,-4.5738,-4.572,-4.5746,-4.5756,-4.5753,-4.5865,-4.5791,-4.5857,-4.5967,-4.5988,-4.6014,-4.6243,-4.6184,-4.6263,-4.6397,-4.648,-4.6507,-4.6531,-4.6613,-4.6643,-4.6281,-4.6281,-4.6282,0,-4.5696,-4.5805,-4.5757,-4.5846,-4.5877,-4.579,-4.5899,-4.592,-4.5963,-4.5987,-4.5927,-4.6063,-4.6074,-4.6218,-4.6274,-4.6297,-4.6326,-4.6261,-4.6507,-4.6531,-4.6552,-4.663,-4.666,-4.6291,-4.629,-4.6289,-4.6288,0,-4.5952,-4.603,-4.6114,-4.6157,-4.6198,-4.6297,-4.6264,-4.6311,-4.6273,-4.6261,-4.6376,-4.6388,-4.6446,-4.6477,-4.6441,-4.6616,-4.6582,-4.6516,-4.6408,-4.6596,-4.6667,-4.6697,-4.6304,-4.6301,-4.6298,-4.6296,0,0,-4.6263,-4.6278,-4.631,-4.6328,-4.635,-4.6409,-4.6505,-4.6561,-4.6602,-4.6635,-4.6714,-4.6809,-4.6747,-4.6777,-4.6742,-4.6815,-4.6996,-4.6739,-4.6739,-4.6786,-4.7189,-4.7238,-4.7273,-4.6957,-4.6962,-4.6967,-4.7186,0,-4.648,-4.6642,-4.6602,-4.6763,-4.6834,-4.6753,-4.6835,-4.6858,-4.685,-4.6909,-4.6899,-4.6968,-4.6881,-4.6898,-4.6966,-4.6959,-4.7076,-4.6943,-4.703,-4.7033,-4.7025,-4.7311,-4.7364,-4.757,-4.7214,-4.7219,-4.7222,0,-4.6754,-4.6797,-4.6966,-4.6976,-4.7004,-4.708,-4.7128,-4.7186,-4.721,-4.7199,-4.7232,-4.7183,-4.7278,-4.717,-4.73,-4.721,-4.7244,-4.7246,-4.7253,-4.7259,-4.7139,-4.7325,-4.7635,-4.7666,-4.7266,-4.7262,-4.7259,0,-4.6964,-4.7064,-4.7177,-4.7196,-4.7211,-4.7266,-4.7275,-4.7293,-4.7329,-4.7372,-4.7395,-4.7449,-4.7478,-4.7521,-4.7488,-4.7413,-4.7624,-4.7513,-4.7617,-4.7618,-4.7665,-4.7662,-4.7985,-4.7687,-4.7687,-4.7686,-4.7685,0,-4.721,-4.7316,-4.7272,-4.7342,-4.7459,-4.7411,-4.7529,-4.7528,-4.7545,-4.7614,-4.7547,-4.7613,-4.7566,-4.7629,-4.7604,-4.7716,-4.7729,-4.7723,-4.7715,-4.7729,-4.773,-4.775,-4.7734,-4.7694,-4.7693,-4.7691,-4.769,0,-4.7463,-4.7437,-4.7556,-4.756,-4.7564,-4.765,-4.7654,-4.7719,-4.7705,-4.7794,-4.7812,-4.7791,-4.7861,-4.7833,-4.7907,-4.789,-4.8033,-4.8006,-4.8024,-4.8017,-4.8123,-4.8113,-4.8469,-4.8514,-4.8188,-4.8191,-4.8194,0,-4.7622,-4.7701,-4.7715,-4.7755,-4.7769,-4.7836,-4.7873,-4.783,-4.7871,-4.7905,-4.7966,-4.803,-4.8079,-4.8195,-4.8187,-4.8244,-4.8218,-4.8339,-4.8226,-4.8237,-4.8219,-4.8215,-4.8222,-4.8361,-4.8365,-4.8368,-4.8371,0,-4.7906,-4.7889,-4.7944,-4.7996,-4.8042,-4.808,-4.8113,-4.8151,-4.8109,-4.8159,-4.8229,-4.8267,-4.8343,-4.8408,-4.8458,-4.8467,-4.8413,-4.8406,-4.8433,-4.8448,-4.8455,-4.8452,-4.8086,-4.8398,-4.8395,-4.8393,-4.8392,-4.8391,-4.8116,-4.8184,-4.8203,-4.8267,-4.8287,-4.8319,-4.8381,-4.8375,-4.8433,-4.849,-4.8462,-4.8544,-4.8566,-4.8628,-4.8645,-4.8709,-4.8662,-4.8701,-4.8711,-4.8721,-4.8735,-4.8446,-4.8718,-4.8718,-4.8717,-4.8716,-4.8715,0,-4.8397,-4.8406,-4.8465,-4.8512,-4.8563,-4.8507,-4.854,-4.8586,-4.8659,-4.8684,-4.8734,-4.8815,-4.8877,-4.8875,-4.8932,-4.8984,-4.896,-4.9001,-4.8996,-4.8999,-4.8774,-4.8745,-4.9019,-4.9019,-4.9019,-4.9018,-4.9018,-4.9018,-4.8549,-4.8659,-4.8645,-4.8765,-4.8773,-4.8852,-4.8876,-4.8906,-4.8926,-4.9019,-4.9071,-4.9068,-4.9082,-4.914,-4.9195,-4.9193,-4.9217,-4.9267,-4.9255,-4.9045,-4.9015,-4.8986,-4.8958,-4.9273,-4.9273,-4.9475,-4.9477,-4.9478]},{"header":{"parameterUnit":"m.s-1","parameterCategory":1,"la1":30.2991,"la2":30.254,"lo1":-89.0895,"lo2":-89.0444,"dy":0.0017,"dx":0.0017,"nx":28,"ny":28,"refTime":"2024-12-25T03:00:00:Z","depth":0,"parameterNumber":3,"parameterNumberName":"V-component_of_WINDS"},"data":[0,0,0,0,0,0,0,0,0,0,0,0,0,0,0,0,0,0,0,0,0,0,0,0,0,0,0,0,0,0,0,0,0,0,0,0,0,0,0,0,0,0,0,0,0,0,0,0,0,0,0,0,0,0,0,0,0,0,-0.8291,-0.8291,0,-0.8214,-0.8213,-0.8212,-0.8185,-0.8185,-0.8185,-0.8185,-0.8104,-0.8101,-0.8099,0,0,0,0,0,0,0,0,0,0,0,0,0,-0.8411,-0.8409,-0.8292,-0.8291,-0.829,-0.8214,-0.8213,-0.8212,-0.8185,-0.8185,-0.8185,-0.8186,-0.8105,-0.8102,-0.8099,0,0,0,0,0,0,0,0,0,0,0,0,0,-0.8349,-0.8408,-0.8292,-0.8267,-0.8264,-0.8214,-0.8213,-0.8212,-0.8184,-0.8185,-0.8185,-0.8186,-0.8106,-0.8102,-0.8098,-0.8067,0,0,-0.8087,-0.8086,0,0,0,0,0,0,0,0,-0.8352,-0.8344,-0.8271,-0.8268,-0.8265,-0.8209,-0.8225,-0.8163,-0.8184,-0.8215,-0.8185,-0.8186,-0.8138,-0.8132,-0.8117,-0.8063,-0.806,-0.8087,-0.8085,-0.8083,-0.8082,0,0,0,0,0,0,0,-0.8357,-0.8348,-0.8261,-0.827,-0.8266,-0.8258,-0.825,-0.8213,-0.8175,-0.8212,-0.821,-0.8201,-0.8137,-0.812,-0.8114,-0.8059,-0.8087,-0.8084,-0.8081,-0.808,-0.7972,-0.7972,0,0,0,0,0,0,-0.8366,-0.8351,-0.8263,-0.8258,-0.8311,-0.8255,-0.8246,-0.8227,-0.8175,-0.8168,-0.8201,-0.82,-0.8126,-0.8119,-0.8111,-0.8069,-0.8083,-0.808,-0.8078,-0.7973,-0.7972,-0.7971,0,0,0,0,0,0,-0.8368,-0.8358,-0.8266,-0.8304,-0.8292,-0.8253,-0.8231,-0.8225,-0.8209,-0.8167,-0.816,-0.8191,-0.8126,-0.8117,-0.8078,-0.8066,-0.8078,-0.8075,-0.7974,-0.7973,-0.7972,-0.7986,0,0,0,0,0,0,-0.8372,-0.8359,-0.8348,-0.8304,-0.829,-0.8235,-0.8231,-0.8223,-0.8203,-0.8201,-0.8156,-0.8149,-0.8126,-0.8083,-0.8074,-0.8061,-0.8072,-0.7974,-0.7973,-0.7972,-0.7986,-0.7986,-0.7985,0,0,0,0,0,-0.8376,-0.8356,-0.8348,-0.8337,-0.8276,-0.8235,-0.8227,-0.8201,-0.8202,-0.8189,-0.8162,-0.815,-0.8069,-0.808,-0.8069,-0.8055,-0.7975,-0.7974,-0.7972,-0.7987,-0.7986,-0.7985,0,0,0,0,0,0,-0.8399,-0.835,-0.834,-0.8305,-0.8275,-0.823,-0.8214,-0.8202,-0.8169,-0.8169,-0.8138,-0.8128,-0.8091,-0.8069,-0.8082,-0.802,-0.8021,-0.8017,-0.8036,-0.8035,-0.8034,-0.8039,-0.8069,0,0,0,0,0,-0.84,-0.8373,-0.833,-0.8303,-0.8288,-0.8254,-0.8235,-0.8218,-0.8185,-0.8171,-0.8141,-0.8108,-0.8075,-0.8054,-0.8021,-0.7983,-0.7971,-0.7968,-0.7967,-0.7967,-0.7963,-0.7938,-0.7935,-0.7966,-0.7966,-0.7966,0,0,-0.8402,-0.8372,-0.8356,-0.8307,-0.8281,-0.8251,-0.8243,-0.8213,-0.8189,-0.8166,-0.8127,-0.8104,-0.8065,-0.8026,-0.8007,-0.8006,-0.7952,-0.7965,-0.7965,-0.7962,-0.7937,-0.7934,-0.7931,-0.7965,-0.7965,-0.7966,0,0,-0.839,-0.8365,-0.8339,-0.8312,-0.8273,-0.825,-0.8243,-0.82,-0.8184,-0.8144,-0.8126,-0.8097,-0.8041,-0.8013,-0.7991,-0.7965,-0.7952,-0.7955,-0.7951,-0.7927,-0.7924,-0.7922,-0.791,-0.7907,-0.7952,-0.7952,-0.7952,0,-0.8397,-0.8353,-0.8327,-0.8296,-0.8274,-0.8251,-0.8222,-0.8198,-0.815,-0.8134,-0.8134,-0.8061,-0.8034,-0.7986,-0.7979,-0.7963,-0.7953,-0.796,-0.7927,-0.7924,-0.7922,-0.791,-0.7906,-0.7953,-0.7953,-0.7953,-0.7953,0,-0.8362,-0.8331,-0.8314,-0.8268,-0.8243,-0.8214,-0.8181,-0.816,-0.8144,-0.812,-0.8078,-0.8043,-0.8002,-0.7989,-0.7974,-0.7938,-0.7939,-0.7934,-0.7934,-0.792,-0.7908,-0.7904,-0.7953,-0.7953,-0.7953,-0.7953,0,0,-0.8364,-0.8302,-0.8296,-0.8273,-0.8226,-0.8201,-0.8169,-0.8129,-0.8109,-0.8076,-0.8047,-0.7999,-0.7992,-0.7968,-0.7949,-0.7928,-0.7905,-0.7924,-0.7923,-0.792,-0.786,-0.7864,-0.7859,-0.7897,-0.7896,-0.7895,-0.7863,0,-0.8345,-0.8288,-0.8262,-0.8216,-0.8185,-0.8162,-0.8133,-0.8101,-0.8077,-0.8046,-0.8019,-0.7984,-0.798,-0.7964,-0.7943,-0.7913,-0.7893,-0.7915,-0.7867,-0.7866,-0.7876,-0.7853,-0.7858,-0.7829,-0.7858,-0.7858,-0.7857,0,-0.8315,-0.8281,-0.8232,-0.8186,-0.8172,-0.8148,-0.8106,-0.8078,-0.8039,-0.8022,-0.7994,-0.7975,-0.7938,-0.7941,-0.7888,-0.7903,-0.7882,-0.7864,-0.7862,-0.7856,-0.786,-0.7844,-0.782,-0.7815,-0.785,-0.7851,-0.7851,0,-0.8319,-0.8261,-0.8223,-0.8205,-0.8151,-0.8133,-0.811,-0.8071,-0.8048,-0.8011,-0.7995,-0.7954,-0.7932,-0.79,-0.787,-0.7875,-0.7818,-0.782,-0.7802,-0.7802,-0.7791,-0.7792,-0.776,-0.778,-0.778,-0.778,-0.778,0,-0.8299,-0.827,-0.8224,-0.8201,-0.8165,-0.8134,-0.81,-0.8075,-0.804,-0.8009,-0.7987,-0.7958,-0.7921,-0.7887,-0.7862,-0.782,-0.7811,-0.7795,-0.7789,-0.7796,-0.7798,-0.7781,-0.7782,-0.7779,-0.7779,-0.7779,-0.7779,0,-0.8298,-0.8266,-0.8223,-0.8175,-0.8162,-0.8138,-0.8096,-0.8071,-0.8045,-0.8006,-0.7995,-0.7954,-0.7913,-0.7879,-0.7825,-0.7809,-0.7764,-0.7758,-0.7777,-0.7773,-0.7757,-0.7758,-0.7712,-0.7703,-0.773,-0.773,-0.773,0,-0.8287,-0.8264,-0.8212,-0.819,-0.8167,-0.8132,-0.8107,-0.8074,-0.8049,-0.8001,-0.7981,-0.7938,-0.7902,-0.7836,-0.78,-0.7758,-0.7749,-0.7736,-0.7743,-0.775,-0.7746,-0.7747,-0.7743,-0.7735,-0.7735,-0.7735,-0.7735,0,-0.8271,-0.8255,-0.8221,-0.8179,-0.815,-0.8116,-0.8081,-0.8064,-0.8024,-0.7996,-0.7954,-0.7925,-0.7869,-0.7825,-0.7779,-0.7752,-0.7736,-0.7733,-0.7726,-0.7733,-0.7744,-0.7735,-0.7773,-0.7734,-0.7734,-0.7734,-0.7734,-0.7734,-0.8263,-0.824,-0.8199,-0.816,-0.813,-0.8097,-0.807,-0.804,-0.8004,-0.7956,-0.7938,-0.7893,-0.7851,-0.7786,-0.7759,-0.7722,-0.7721,-0.7712,-0.7709,-0.7707,-0.7706,-0.7751,-0.7714,-0.7714,-0.7714,-0.7714,-0.7714,0,-0.8244,-0.8216,-0.818,-0.8131,-0.81,-0.8087,-0.8047,-0.8021,-0.7982,-0.7944,-0.7908,-0.7857,-0.7813,-0.7773,-0.7727,-0.7705,-0.7696,-0.7694,-0.7694,-0.7688,-0.7712,-0.7721,-0.7702,-0.7702,-0.7702,-0.7702,-0.7702,-0.7702,-0.823,-0.8189,-0.8168,-0.811,-0.8082,-0.8038,-0.8015,-0.7984,-0.7953,-0.7897,-0.7861,-0.7835,-0.7795,-0.7745,-0.7704,-0.7692,-0.7676,-0.7675,-0.7662,-0.7685,-0.7687,-0.7688,-0.7697,-0.7672,-0.7672,-0.764,-0.764,-0.764]}]]